Georg Jacob — A8XG5 — position and weather

sailwx.info

Track history (hours):
 
Tides and Currents Weather Stations Pressure Air Temp Water Temp Dewpoint Dewpoint Depression Visibility Wind Speed Wind Dir Waves Ship Positions

Georg Jacob

Last reported at 2014-Oct-23 05:33 UTC. Time now 2014-Oct-24 07:10 UTC.
Position N 29°58' W 014°27'.

Length 229 m; draft 13.5 m.

Type: Tanker. MMSI: 636092136.

Date/timePositionNaut miles runAvg speedWind from/ knotsBaromVisibWave heightAir tempDewpointWater temp
2014-Oct-23 05:33N 29°58' W 014°27'3410.5
2014-Oct-23 02:20N 30°30' W 014°17'810.2
2014-Oct-23 01:33N 30°38' W 014°15'202 9.9
2014-Oct-22 05:12N 33°54' W 013°16'710.4
2014-Oct-22 04:33N 34°01' W 013°14'3410.5
2014-Oct-22 01:17N 34°34' W 013°04'810.6
2014-Oct-22 00:34N 34°41' W 013°01'2410.2
2014-Oct-21 22:14N 35°04' W 012°54'46 9.8
2014-Oct-21 17:33N 35°49' W 012°41'20 9.4
2014-Oct-21 15:26N 36°08' W 012°34'9 9.9
2014-Oct-21 14:33N 36°16' W 012°32'10 9.8
2014-Oct-21 13:33N 36°26' W 012°29'21 9.7
2014-Oct-21 11:20N 36°47' W 012°22'8 9.7
2014-Oct-21 10:31N 36°54' W 012°20'1010.0
2014-Oct-21 09:31N 37°04' W 012°17'1010.1
2014-Oct-21 08:33N 37°14' W 012°14'10 9.9
2014-Oct-21 07:33N 37°23' W 012°11'10 9.7
2014-Oct-21 06:32N 37°33' W 012°07'12 9.8
2014-Oct-21 05:17N 37°44' W 012°04'7 9.6
2014-Oct-21 04:33N 37°51' W 012°01'10 9.6
2014-Oct-21 03:33N 38°01' W 011°59'20 9.4
2014-Oct-21 01:22N 38°21' W 011°52'8 9.2
2014-Oct-21 00:33N 38°28' W 011°50'  
2014-Oct-16 21:06N 50°05' W 002°23'99 9.2
2014-Oct-16 10:20N 50°31' E 000°06'8 9.8
2014-Oct-16 09:33N 50°33' E 000°17'10 9.9
2014-Oct-16 08:34N 50°36' E 000°32'10 9.5
2014-Oct-16 07:34N 50°41' E 000°45'9 9.2
2014-Oct-16 06:33N 50°46' E 000°57'11 8.5
2014-Oct-16 05:17N 50°53' E 001°10'7 8.3
2014-Oct-16 04:28N 50°58' E 001°17'7 8.1
2014-Oct-16 03:34N 51°03' E 001°26'9 8.8
2014-Oct-16 02:34N 51°09' E 001°37'10 9.7
2014-Oct-16 01:34N 51°16' E 001°47'1110.7
2014-Oct-16 00:34N 51°26' E 001°54'1110.6
2014-Oct-15 23:34N 51°34' E 002°05'1010.1
2014-Oct-15 22:33N 51°41' E 002°16'10 9.7
2014-Oct-15 21:32N 51°49' E 002°27'63 9.0
2014-Oct-15 14:31N 52°30' E 003°45'1010.3
2014-Oct-15 13:34N 52°31' E 004°02'1010.1
2014-Oct-15 12:33N 52°30' E 004°18'9 8.8
2014-Oct-15 11:34N 52°28' E 004°32'3 2.8
2014-Oct-15 10:34N 52°28' E 004°37'0 0.0
2014-Oct-15 09:34N 52°28' E 004°37'2 2.3
2014-Oct-15 08:33N 52°27' E 004°40'5 4.9
2014-Oct-15 07:33N 52°24' E 004°46'0 0.1
2014-Oct-15 06:33N 52°24' E 004°46'0 0.0
2014-Oct-15 05:33N 52°24' E 004°46'0 0.0
2014-Oct-15 04:33N 52°24' E 004°46'0 0.0
2014-Oct-15 03:30N 52°24' E 004°46'0 0.0
2014-Oct-15 02:33N 52°24' E 004°46'0 0.0
2014-Oct-15 01:33N 52°24' E 004°46'0 0.0
2014-Oct-15 00:33N 52°24' E 004°46'0 0.0
2014-Oct-14 23:33N 52°24' E 004°46'0 0.0
2014-Oct-14 22:33N 52°24' E 004°46'0 0.0
2014-Oct-14 21:33N 52°24' E 004°46'0 0.0
2014-Oct-14 20:33N 52°24' E 004°46'0 0.0
2014-Oct-14 19:33N 52°24' E 004°46'0 0.0
2014-Oct-14 18:33N 52°24' E 004°46'0 0.0
2014-Oct-14 17:33N 52°24' E 004°46'0 0.0
2014-Oct-14 16:33N 52°24' E 004°46'0 0.0
2014-Oct-14 15:33N 52°24' E 004°46'0 0.0
2014-Oct-14 14:33N 52°24' E 004°46'0 0.0
2014-Oct-14 13:33N 52°24' E 004°46'0 0.0
2014-Oct-14 12:24N 52°24' E 004°46'0 0.0
2014-Oct-14 11:33N 52°24' E 004°46'0 0.0
2014-Oct-14 10:33N 52°24' E 004°46'0 0.0
2014-Oct-14 09:33N 52°24' E 004°46'0 0.0
2014-Oct-14 08:33N 52°24' E 004°46'0 0.0
2014-Oct-14 07:33N 52°24' E 004°46'0 0.0
2014-Oct-14 06:33N 52°24' E 004°46'0 0.0
2014-Oct-14 05:33N 52°24' E 004°46'0 0.0
2014-Oct-14 04:30N 52°24' E 004°46'0 0.0
2014-Oct-14 03:33N 52°24' E 004°46'0 0.0
2014-Oct-14 02:33N 52°24' E 004°46'0 0.0
2014-Oct-14 01:33N 52°24' E 004°46'0 0.0
2014-Oct-14 00:33N 52°24' E 004°46'0 0.0
2014-Oct-13 23:33N 52°24' E 004°46'0 0.0
2014-Oct-13 22:33N 52°24' E 004°46'0 0.0
2014-Oct-13 21:30N 52°24' E 004°46'0 0.0
2014-Oct-13 20:33N 52°24' E 004°46'0 0.0
2014-Oct-13 19:33N 52°24' E 004°46'0 0.0
2014-Oct-13 18:30N 52°24' E 004°46'0 0.0
2014-Oct-13 17:33N 52°24' E 004°46'0 0.0
2014-Oct-13 16:30N 52°24' E 004°46'0 0.0
2014-Oct-13 15:33N 52°24' E 004°46'0 0.0
2014-Oct-13 14:30N 52°24' E 004°46'0 0.0
2014-Oct-13 13:33N 52°24' E 004°46'0 0.0
2014-Oct-13 12:33N 52°24' E 004°46'0 0.0
2014-Oct-13 11:33N 52°24' E 004°46'0 0.0
2014-Oct-13 10:33N 52°24' E 004°46'0 0.0
2014-Oct-13 09:33N 52°24' E 004°46'0 0.0
2014-Oct-13 08:33N 52°24' E 004°46'0 0.0
2014-Oct-13 07:33N 52°24' E 004°46'0 0.0
2014-Oct-13 06:33N 52°24' E 004°46'  
Track history (hours):
 
Tides and Currents Weather Stations Pressure Air Temp Water Temp Dewpoint Dewpoint Depression Visibility Wind Speed Wind Dir Waves Ship Positions

Georg Jacob

Last reported at 2014-Oct-23 05:33 UTC. Time now 2014-Oct-24 07:10 UTC.
Position N 29°58' W 014°27'.

Length 229 m; draft 13.5 m.

Type: Tanker. MMSI: 636092136.

Date/timePositionNaut miles runAvg speedWind from/ knotsBaromVisibWave heightAir tempDewpointWater temp
2014-Oct-23 05:33N 29°58' W 014°27'3410.5
2014-Oct-23 02:20N 30°30' W 014°17'810.2
2014-Oct-23 01:33N 30°38' W 014°15'202 9.9
2014-Oct-22 05:12N 33°54' W 013°16'710.4
2014-Oct-22 04:33N 34°01' W 013°14'3410.5
2014-Oct-22 01:17N 34°34' W 013°04'810.6
2014-Oct-22 00:34N 34°41' W 013°01'2410.2
2014-Oct-21 22:14N 35°04' W 012°54'46 9.8
2014-Oct-21 17:33N 35°49' W 012°41'20 9.4
2014-Oct-21 15:26N 36°08' W 012°34'9 9.9
2014-Oct-21 14:33N 36°16' W 012°32'10 9.8
2014-Oct-21 13:33N 36°26' W 012°29'21 9.7
2014-Oct-21 11:20N 36°47' W 012°22'8 9.7
2014-Oct-21 10:31N 36°54' W 012°20'1010.0
2014-Oct-21 09:31N 37°04' W 012°17'1010.1
2014-Oct-21 08:33N 37°14' W 012°14'10 9.9
2014-Oct-21 07:33N 37°23' W 012°11'10 9.7
2014-Oct-21 06:32N 37°33' W 012°07'12 9.8
2014-Oct-21 05:17N 37°44' W 012°04'7 9.6
2014-Oct-21 04:33N 37°51' W 012°01'10 9.6
2014-Oct-21 03:33N 38°01' W 011°59'20 9.4
2014-Oct-21 01:22N 38°21' W 011°52'8 9.2
2014-Oct-21 00:33N 38°28' W 011°50'  
2014-Oct-16 21:06N 50°05' W 002°23'99 9.2
2014-Oct-16 10:20N 50°31' E 000°06'8 9.8
2014-Oct-16 09:33N 50°33' E 000°17'10 9.9
2014-Oct-16 08:34N 50°36' E 000°32'10 9.5
2014-Oct-16 07:34N 50°41' E 000°45'9 9.2
2014-Oct-16 06:33N 50°46' E 000°57'11 8.5
2014-Oct-16 05:17N 50°53' E 001°10'7 8.3
2014-Oct-16 04:28N 50°58' E 001°17'7 8.1
2014-Oct-16 03:34N 51°03' E 001°26'9 8.8
2014-Oct-16 02:34N 51°09' E 001°37'10 9.7
2014-Oct-16 01:34N 51°16' E 001°47'1110.7
2014-Oct-16 00:34N 51°26' E 001°54'1110.6
2014-Oct-15 23:34N 51°34' E 002°05'1010.1
2014-Oct-15 22:33N 51°41' E 002°16'10 9.7
2014-Oct-15 21:32N 51°49' E 002°27'63 9.0
2014-Oct-15 14:31N 52°30' E 003°45'1010.3
2014-Oct-15 13:34N 52°31' E 004°02'1010.1
2014-Oct-15 12:33N 52°30' E 004°18'9 8.8
2014-Oct-15 11:34N 52°28' E 004°32'3 2.8
2014-Oct-15 10:34N 52°28' E 004°37'0 0.0
2014-Oct-15 09:34N 52°28' E 004°37'2 2.3
2014-Oct-15 08:33N 52°27' E 004°40'5 4.9
2014-Oct-15 07:33N 52°24' E 004°46'0 0.1
2014-Oct-15 06:33N 52°24' E 004°46'0 0.0
2014-Oct-15 05:33N 52°24' E 004°46'0 0.0
2014-Oct-15 04:33N 52°24' E 004°46'0 0.0
2014-Oct-15 03:30N 52°24' E 004°46'0 0.0
2014-Oct-15 02:33N 52°24' E 004°46'0 0.0
2014-Oct-15 01:33N 52°24' E 004°46'0 0.0
2014-Oct-15 00:33N 52°24' E 004°46'0 0.0
2014-Oct-14 23:33N 52°24' E 004°46'0 0.0
2014-Oct-14 22:33N 52°24' E 004°46'0 0.0
2014-Oct-14 21:33N 52°24' E 004°46'0 0.0
2014-Oct-14 20:33N 52°24' E 004°46'0 0.0
2014-Oct-14 19:33N 52°24' E 004°46'0 0.0
2014-Oct-14 18:33N 52°24' E 004°46'0 0.0
2014-Oct-14 17:33N 52°24' E 004°46'0 0.0
2014-Oct-14 16:33N 52°24' E 004°46'0 0.0
2014-Oct-14 15:33N 52°24' E 004°46'0 0.0
2014-Oct-14 14:33N 52°24' E 004°46'0 0.0
2014-Oct-14 13:33N 52°24' E 004°46'0 0.0
2014-Oct-14 12:24N 52°24' E 004°46'0 0.0
2014-Oct-14 11:33N 52°24' E 004°46'0 0.0
2014-Oct-14 10:33N 52°24' E 004°46'0 0.0
2014-Oct-14 09:33N 52°24' E 004°46'0 0.0
2014-Oct-14 08:33N 52°24' E 004°46'0 0.0
2014-Oct-14 07:33N 52°24' E 004°46'0 0.0
2014-Oct-14 06:33N 52°24' E 004°46'0 0.0
2014-Oct-14 05:33N 52°24' E 004°46'0 0.0
2014-Oct-14 04:30N 52°24' E 004°46'0 0.0
2014-Oct-14 03:33N 52°24' E 004°46'0 0.0
2014-Oct-14 02:33N 52°24' E 004°46'0 0.0
2014-Oct-14 01:33N 52°24' E 004°46'0 0.0
2014-Oct-14 00:33N 52°24' E 004°46'0 0.0
2014-Oct-13 23:33N 52°24' E 004°46'0 0.0
2014-Oct-13 22:33N 52°24' E 004°46'0 0.0
2014-Oct-13 21:30N 52°24' E 004°46'0 0.0
2014-Oct-13 20:33N 52°24' E 004°46'0 0.0
2014-Oct-13 19:33N 52°24' E 004°46'0 0.0
2014-Oct-13 18:30N 52°24' E 004°46'0 0.0
2014-Oct-13 17:33N 52°24' E 004°46'0 0.0
2014-Oct-13 16:30N 52°24' E 004°46'0 0.0
2014-Oct-13 15:33N 52°24' E 004°46'0 0.0
2014-Oct-13 14:30N 52°24' E 004°46'0 0.0
2014-Oct-13 13:33N 52°24' E 004°46'0 0.0
2014-Oct-13 12:33N 52°24' E 004°46'0 0.0
2014-Oct-13 11:33N 52°24' E 004°46'0 0.0
2014-Oct-13 10:33N 52°24' E 004°46'0 0.0
2014-Oct-13 09:33N 52°24' E 004°46'0 0.0
2014-Oct-13 08:33N 52°24' E 004°46'0 0.0
2014-Oct-13 07:33N 52°24' E 004°46'0 0.0
2014-Oct-13 06:33N 52°24' E 004°46'  

Dump ship's entire track history